Theta_e
327 328 328 327 327 326 325 324 322 322 324 323 321 320 323 326 321 319 330 335 329 330 334 333 334 334 333 334 333 333 334 330 340 356 356 353 353 351 352 354 354 355 356 356 353 347 344 345 346 347 348 347 348 349 347 349 355 359 360 359 360 361 361 360 357 352 351 353 355 353 351 347 342 334 326 324 327 331 330 327 329 335 335 327 322 324 325
328 328 328 328 327 325 325 325 325 324 324 323 323 323 324 325 323 324 331 334 331 332 332 332 334 334 333 333 332 331 333 332 341 355 357 355 355 351 347 349 351 348 345 347 350 346 342 345 345 344 345 345 346 346 347 347 351 358 362 360 360 361 361 360 359 358 357 356 356 354 351 350 347 339 330 326 325 325 325 324 330 340 342 334 325 324 324
327 329 329 328 327 326 324 324 326 325 324 324 324 324 325 324 324 326 328 329 331 332 332 332 333 333 332 333 332 332 333 335 343 352 354 353 355 353 346 344 350 351 345 342 344 343 340 341 343 344 344 345 345 347 351 353 354 359 362 360 359 360 360 360 361 361 359 357 356 355 354 353 353 350 344 335 327 324 325 324 326 334 340 340 333 327 325
325 328 329 328 328 326 323 322 324 324 323 323 323 324 325 325 324 326 324 323 327 332 332 333 332 332 333 333 334 334 334 339 345 349 353 354 353 355 353 350 353 355 352 347 343 342 343 345 344 343 343 343 345 351 358 361 361 362 362 361 360 361 360 361 361 361 359 357 356 356 356 355 355 355 352 345 334 327 324 323 324 327 335 340 337 330 325
325 328 328 326 325 323 321 322 325 326 324 324 324 325 326 326 326 325 323 323 329 331 330 331 332 331 331 331 334 336 339 348 353 352 354 355 355 357 358 356 354 354 356 357 353 351 355 356 352 350 352 353 353 358 362 363 364 363 362 362 361 360 361 361 361 359 358 357 357 356 356 356 355 355 353 349 342 333 327 324 323 323 328 337 339 334 328
325 327 328 327 323 320 321 325 327 327 326 325 325 324 325 327 328 327 328 329 332 331 330 333 333 331 332 336 341 343 346 350 351 351 351 352 356 358 357 357 355 353 356 359 355 352 357 359 358 359 362 361 358 358 358 358 357 358 359 360 361 361 362 361 360 358 357 357 357 357 356 355 354 353 351 349 345 341 334 330 325 322 326 334 338 336 330
326 327 328 326 323 322 326 329 329 327 327 326 327 327 327 327 327 328 330 330 331 332 333 335 336 337 343 346 346 345 343 341 341 344 347 349 354 355 354 356 356 353 354 356 354 352 355 357 357 358 357 355 353 352 352 350 350 352 354 355 358 361 361 359 358 358 357 357 356 356 355 354 353 352 351 349 347 344 339 333 328 324 328 334 335 332 330
327 327 327 326 327 328 328 332 332 329 329 327 325 325 326 327 328 328 329 329 330 331 333 336 341 344 347 346 343 341 339 338 339 341 343 346 350 351 348 348 348 348 349 350 348 348 351 351 350 349 346 347 351 352 350 345 343 346 348 350 356 360 358 356 356 356 356 355 355 354 354 353 352 351 350 348 346 344 341 337 331 327 331 335 333 331 333
328 326 325 327 328 327 329 332 334 334 333 333 331 327 327 328 329 329 331 332 330 329 333 342 344 342 342 342 341 342 341 340 339 339 341 345 347 348 347 347 346 343 344 347 346 344 345 345 344 343 340 341 345 345 341 337 335 337 341 345 353 356 354 352 352 353 353 353 353 352 352 352 351 350 349 347 345 344 343 341 339 336 336 335 330 330 335
329 327 326 329 327 326 330 335 337 336 335 336 338 333 330 330 331 331 333 334 333 333 339 344 342 339 339 337 338 345 346 343 341 339 340 342 344 348 351 350 347 342 344 348 346 343 345 345 340 336 333 332 334 333 332 331 331 334 338 340 344 349 349 346 344 345 348 349 349 350 350 350 350 349 348 347 345 345 344 343 342 341 339 337 335 335 337
328 328 328 330 328 330 336 338 336 336 335 336 337 331 327 332 337 337 336 335 335 337 341 343 341 338 335 333 337 347 348 347 346 343 342 342 343 347 349 348 346 344 345 346 343 342 346 344 335 329 329 330 331 331 331 331 332 333 336 336 337 339 338 335 335 338 342 345 348 348 349 349 349 348 347 346 344 343 342 342 342 341 341 340 339 339 338
327 328 328 329 329 334 339 337 333 335 336 336 333 324 325 335 342 341 339 338 338 342 343 342 341 337 334 335 344 348 348 350 351 349 347 345 344 345 348 349 348 346 344 343 342 342 342 338 331 329 330 330 331 331 332 333 335 335 334 334 335 334 331 329 330 333 337 342 346 347 347 348 347 346 345 344 342 341 341 340 340 340 339 339 339 338 337
326 326 326 327 330 335 337 334 334 336 336 334 329 325 332 344 346 343 342 341 341 344 344 341 340 342 345 349 350 349 349 353 353 351 349 348 348 350 351 350 346 342 340 338 337 337 335 332 330 331 331 331 332 332 332 334 335 335 332 331 331 330 329 328 329 332 338 343 345 347 347 347 346 344 344 341 338 336 336 336 337 337 337 336 336 335 335
325 326 327 327 330 335 335 334 335 335 334 332 332 335 342 346 343 342 342 340 341 343 342 342 346 348 350 351 351 352 352 354 354 354 353 353 354 353 350 346 342 340 337 334 332 332 332 331 331 331 331 332 331 331 331 331 331 330 330 330 329 328 329 329 331 338 343 345 347 347 347 347 345 342 340 336 332 329 330 332 334 334 335 334 333 333 334
327 328 329 328 331 335 335 335 337 336 335 336 339 341 344 343 343 343 342 341 343 344 344 347 349 349 350 351 352 353 353 353 353 353 353 353 351 347 343 343 344 343 338 333 332 333 332 331 331 330 330 330 330 329 329 329 329 329 329 329 329 329 329 329 331 337 343 345 346 345 345 344 341 338 334 330 329 328 328 330 332 333 333 334 333 333 333
328 326 330 332 333 335 334 335 338 338 337 339 340 341 342 344 345 345 345 346 346 345 346 347 346 345 346 348 349 350 349 348 348 347 346 343 342 341 340 341 342 340 336 334 333 333 333 332 331 331 330 330 329 330 329 329 329 330 329 329 329 329 329 331 333 336 341 343 342 343 343 340 336 332 329 329 329 328 328 331 333 333 333 333 333 333 333
332 330 333 335 334 334 333 334 336 337 336 336 337 339 340 341 341 343 344 345 344 344 344 344 343 344 343 343 344 344 343 344 344 344 344 342 341 342 342 341 340 337 333 332 332 332 332 332 332 332 331 330 330 330 330 330 330 330 329 329 330 330 330 332 333 335 338 340 340 341 340 335 332 330 329 330 329 327 328 332 333 333 333 333 332 332 332
335 334 335 335 334 334 333 332 333 333 334 336 337 338 339 339 339 341 342 341 342 343 343 342 342 343 343 343 344 343 343 343 339 337 339 340 340 340 338 337 340 340 337 333 333 333 333 331 331 331 331 331 330 329 330 330 330 330 331 331 331 331 330 331 333 335 337 338 340 340 336 332 331 331 330 331 328 325 328 333 333 332 332 332 332 332 332
333 333 334 334 333 333 333 332 332 333 334 335 336 338 338 339 339 341 343 343 342 343 344 343 342 341 341 342 342 341 343 343 338 333 333 334 334 334 331 332 335 338 337 335 333 332 332 331 331 332 333 333 333 331 331 332 332 332 333 333 331 331 332 333 336 337 339 339 340 339 334 331 332 332 332 333 332 329 331 334 334 333 333 333 332 332 333
333 334 334 334 333 333 333 332 332 333 333 333 335 336 336 337 337 338 341 343 344 344 345 345 345 345 344 342 341 339 339 338 335 332 331 332 332 332 332 331 332 333 333 332 331 331 331 331 332 335 335 334 334 332 332 334 336 336 336 335 335 335 336 337 338 339 339 339 339 337 334 333 335 335 335 335 335 334 334 335 335 335 334 333 333 332 333
335 335 333 331 330 331 332 332 332 332 331 331 331 332 333 334 334 334 335 337 338 340 341 342 343 344 345 344 343 341 339 338 337 335 333 333 332 332 332 332 331 332 333 332 332 332 332 332 334 335 334 333 333 334 335 337 339 340 339 340 340 339 339 339 339 339 340 339 338 336 334 334 335 336 336 335 335 336 335 333 333 334 334 333 333 332 331
333 332 332 331 331 332 331 331 331 331 331 330 329 330 331 331 331 331 332 332 332 333 334 335 336 337 338 339 338 337 337 338 339 338 336 335 334 334 334 333 332 332 333 333 333 332 332 333 334 334 335 335 336 337 339 340 341 342 342 342 342 341 342 341 341 340 340 339 338 337 336 335 335 335 334 334 334 334 333 332 331 331 332 333 332 330 330
332 332 333 334 334 333 330 327 327 328 329 329 329 330 329 328 327 328 329 329 329 330 330 331 331 332 332 332 331 331 332 334 335 336 336 336 336 336 336 335 334 334 334 335 335 335 334 336 336 336 336 336 338 340 340 341 342 342 340 340 341 343 343 343 341 341 340 340 338 337 337 337 335 334 334 334 333 332 333 331 329 328 328 328 328 326 327
333 333 333 332 332 330 327 324 323 324 325 326 327 327 328 327 326 325 326 327 328 328 327 328 329 330 330 328 326 326 326 328 330 332 333 334 337 339 338 336 335 335 336 337 338 337 337 337 337 337 338 338 339 341 341 341 341 338 334 335 340 342 342 341 339 339 340 340 339 338 338 338 336 335 334 333 333 332 332 330 327 325 324 323 322 322 322
332 332 331 330 329 327 325 324 323 323 322 323 324 323 323 323 323 323 323 324 325 326 325 325 324 325 327 327 326 326 325 324 324 325 327 329 333 336 338 336 334 334 336 338 338 339 340 341 340 339 340 340 340 341 341 339 337 333 331 334 339 341 340 337 334 335 339 341 339 338 338 337 335 333 332 332 332 330 329 328 325 323 322 321 320 319 321
331 330 329 328 326 325 324 323 322 322 323 324 324 322 320 320 320 320 319 319 320 321 322 322 320 320 321 322 323 324 325 324 322 322 322 324 325 329 333 334 334 334 335 336 338 341 343 343 342 340 340 340 340 341 340 337 334 332 332 334 336 336 335 333 331 334 337 338 337 336 336 334 332 331 331 332 332 329 325 325 323 321 321 321 320 320 322
327 327 327 326 325 324 323 322 321 321 322 323 323 321 320 320 319 317 316 316 316 316 316 316 316 316 317 318 318 320 321 321 321 321 321 321 322 323 326 329 332 333 333 334 336 339 341 341 339 338 339 339 339 340 339 336 333 332 331 331 331 331 331 330 331 333 335 335 334 334 333 331 330 330 330 329 330 329 327 326 326 324 323 323 323 324 325
322 323 325 325 324 323 321 320 320 320 320 322 322 322 321 321 320 318 316 315 315 314 314 314 314 314 313 313 314 315 316 316 317 318 319 320 320 320 320 323 328 331 333 334 335 337 338 339 338 338 338 338 338 339 338 335 332 330 329 329 329 329 328 329 331 332 333 334 333 332 330 327 327 327 327 326 327 327 327 328 330 329 326 325 325 325 324
317 317 319 321 321 320 318 317 317 317 317 319 320 321 321 320 319 319 318 317 316 316 317 318 319 318 317 316 314 314 315 314 313 314 315 316 318 319 319 320 323 326 330 333 335 337 338 338 338 338 337 337 338 337 334 331 329 327 328 330 331 330 329 330 332 333 332 331 330 328 326 325 324 324 325 325 326 327 329 331 333 331 326 324 325 324 323
316 315 316 316 317 316 315 314 315 315 315 316 317 319 320 320 320 320 320 320 318 318 318 320 321 321 321 320 317 317 317 315 313 313 313 313 314 316 318 318 321 326 331 332 334 337 340 340 339 337 336 336 336 333 330 328 327 327 330 332 332 331 329 327 328 329 328 327 326 325 324 324 325 326 326 326 328 331 332 332 330 327 325 324 323 323 323
315 315 315 315 314 315 316 316 316 316 315 315 316 318 320 322 322 321 321 321 321 320 320 321 321 321 322 321 320 320 319 317 316 318 319 317 314 313 314 317 321 326 330 331 331 336 341 342 340 336 336 336 334 330 328 328 328 329 331 331 328 327 325 324 325 327 327 326 326 326 326 327 329 330 329 328 329 331 330 328 326 326 326 326 325 325 324
314 315 315 315 315 316 316 316 317 317 316 316 317 318 320 322 322 322 322 322 322 322 323 323 322 322 321 320 321 321 321 321 321 323 323 323 320 314 312 314 316 318 322 326 329 334 340 342 341 337 335 335 332 328 328 329 330 331 331 329 326 326 326 326 327 327 327 328 329 329 330 331 330 329 328 327 328 328 328 327 327 327 328 328 327 326 325
316 317 317 317 318 317 316 315 315 316 316 316 317 318 320 321 322 322 323 323 323 324 324 323 323 321 319 318 320 322 322 323 323 324 325 327 325 318 314 314 315 315 317 321 327 332 336 340 340 338 335 334 331 328 329 331 332 333 331 328 327 327 327 327 327 328 328 329 329 329 329 328 328 328 327 327 326 326 327 328 329 329 328 328 327 325 323
316 317 317 318 319 319 318 317 317 318 317 318 318 320 321 322 322 322 323 323 323 323 324 324 324 324 323 323 324 325 325 326 327 327 329 329 325 319 315 314 314 314 314 317 325 332 336 338 339 338 335 333 331 329 329 330 331 331 328 326 326 327 326 325 326 327 328 328 327 327 326 326 326 327 327 327 326 326 326 327 328 328 328 326 325 323 322
317 317 317 318 318 319 319 319 319 319 319 319 319 320 321 321 322 322 322 322 322 322 323 323 324 324 325 325 326 327 327 328 329 329 329 329 326 323 321 320 319 319 318 320 326 333 336 337 337 337 335 332 330 329 330 330 329 326 324 324 326 327 324 323 324 324 324 323 322 322 323 323 322 324 326 326 326 325 325 325 326 326 326 325 324 323 322
317 317 317 317 317 318 319 319 320 320 320 320 320 321 321 321 322 322 322 322 322 322 322 323 324 325 325 325 326 326 327 328 328 328 328 329 329 329 329 328 328 328 328 328 330 333 334 335 335 335 334 332 330 329 330 330 328 325 323 325 327 326 324 322 322 321 321 320 319 319 320 319 319 321 323 323 323 324 325 325 325 325 325 325 324 322 322
317 317 317 318 319 319 319 320 320 321 321 321 321 321 321 322 322 322 322 322 322 322 322 322 324 325 325 325 325 325 326 326 327 328 329 330 330 330 331 331 331 331 331 331 332 333 333 333 333 333 333 332 331 330 330 330 328 325 324 324 326 326 323 321 320 319 318 318 317 317 318 318 319 320 320 321 322 324 325 325 324 324 324 324 323 322 322
319 318 317 318 318 318 319 320 320 320 321 321 321 321 321 322 322 323 323 323 323 323 323 323 324 324 324 325 325 325 325 325 326 328 329 330 330 331 331 332 332 332 332 331 331 332 332 332 331 332 333 333 332 332 332 330 328 327 326 325 324 323 322 320 318 318 318 318 318 318 319 319 320 320 321 321 323 324 324 324 324 323 323 322 322 322 322
320 319 318 317 317 318 319 320 320 320 320 321 321 321 321 322 323 323 323 324 324 324 324 324 324 324 325 325 325 325 325 325 326 327 328 329 330 330 330 331 331 331 330 330 329 330 330 330 330 331 331 330 329 329 328 327 326 326 325 324 322 320 319 318 318 318 318 318 318 319 320 321 321 322 323 323 323 323 323 323 323 322 321 321 321 321 321
320 320 320 320 319 319 319 320 320 320 321 321 321 321 322 323 323 323 323 323 324 324 325 325 325 325 325 326 326 326 326 326 326 327 327 328 329 329 329 329 328 328 327 327 326 326 325 326 327 327 326 324 324 323 322 322 322 322 321 320 320 319 319 318 318 319 320 320 320 321 322 322 323 323 323 322 322 322 321 321 320 320 320 320 320 320 320
321 321 321 321 321 320 321 321 320 320 320 321 321 321 321 322 323 323 323 323 324 324 324 324 325 325 325 325 325 325 325 325 326 327 327 327 327 327 328 327 326 326 326 326 325 325 325 324 324 324 323 323 322 321 320 321 322 322 321 321 321 321 321 321 321 322 323 323 322 322 323 322 322 321 321 321 321 320 320 319 318 318 318 318 318 318 318
322 321 321 321 321 321 321 321 321 321 320 321 321 320 320 321 322 323 323 323 323 323 323 323 323 324 325 325 325 324 324 325 325 326 327 327 326 327 326 326 324 324 325 324 324 324 324 324 323 323 323 322 322 321 321 322 323 323 322 322 322 322 322 322 322 322 322 322 322 322 321 321 320 320 320 320 319 318 318 318 317 317 317 317 317 317 317
321 321 320 320 320 321 321 321 322 321 321 320 319 319 319 320 321 322 322 322 322 322 323 323 323 323 324 325 324 324 324 324 325 325 325 326 326 326 326 325 323 322 322 323 325 325 325 325 324 322 321 320 320 320 320 321 321 321 321 320 320 320 320 320 320 320 320 320 321 320 320 319 319 319 318 318 318 317 317 316 316 316 316 316 316 316 316
320 320 320 320 319 320 320 320 320 320 320 319 319 319 319 320 320 321 321 321 321 321 321 321 322 322 323 323 323 324 324 324 324 324 324 324 324 324 323 323 323 322 322 323 325 326 325 324 322 320 319 319 318 318 319 320 319 319 318 318 317 317 317 318 318 318 318 318 319 319 319 318 318 317 317 316 316 315 314 313 313 313 312 313 313 314 314
318 317 318 319 319 319 319 318 318 319 320 320 319 318 318 318 318 318 318 319 320 320 320 320 321 321 321 322 322 322 322 322 322 322 322 323 323 322 322 323 323 322 321 322 323 323 322 321 320 319 318 317 316 316 318 318 317 316 316 315 315 315 315 315 315 316 316 316 317 317 317 317 316 316 315 314 312 312 312 311 311 311 310 310 310 311 311
317 316 316 317 318 317 316 315 316 317 318 318 317 317 317 318 318 317 316 315 317 319 319 320 320 320 319 320 321 321 321 321 321 321 321 321 321 321 321 321 322 321 320 321 322 322 321 319 318 317 316 315 314 316 317 317 316 315 315 315 314 314 314 313 314 314 314 315 315 315 315 315 314 313 313 312 311 311 311 310 310 310 310 309 310 309 309
318 318 317 317 317 315 314 315 316 317 317 316 316 316 317 317 317 317 316 316 317 318 318 318 318 318 317 317 318 319 319 320 321 321 320 320 320 320 320 320 320 319 319 320 321 320 319 317 316 316 315 314 314 317 318 317 316 316 315 315 315 315 314 313 313 314 313 314 314 313 313 313 312 312 311 311 311 310 311 310 310 310 309 309 309 308 308
317 318 318 318 318 317 316 316 317 316 316 316 316 316 316 316 316 316 316 316 316 317 316 316 317 317 316 316 317 317 316 316 317 319 319 318 319 320 320 320 319 318 319 320 320 319 318 317 317 317 315 314 315 317 318 317 316 316 315 314 314 314 314 313 313 314 313 313 312 312 312 312 312 311 311 311 311 311 311 311 310 310 309 309 308 308 308
315 317 317 317 317 317 317 316 315 315 316 316 315 315 315 315 315 315 315 315 315 315 314 314 315 316 316 315 316 316 315 314 315 316 317 317 317 317 318 318 317 316 317 319 321 320 318 318 318 317 316 315 316 318 318 317 315 315 315 315 314 314 314 314 314 314 313 313 313 312 312 312 312 312 312 312 312 312 311 311 310 310 309 308 307 306 306
316 317 317 316 316 315 315 314 314 315 315 315 315 315 315 315 314 313 314 314 314 314 314 313 314 314 314 314 315 315 315 314 315 316 316 317 317 317 317 317 316 313 311 314 318 319 319 318 318 317 317 317 317 318 318 317 316 315 315 315 315 314 314 314 313 313 313 313 313 313 313 313 313 313 313 313 312 312 312 311 311 310 308 307 307 306 307
316 317 316 316 315 315 315 314 313 313 313 314 314 315 315 314 313 313 314 313 313 313 313 313 313 314 313 313 313 314 314 315 315 315 315 316 317 317 317 317 317 314 311 312 315 317 318 318 318 318 318 318 318 318 318 317 317 316 315 315 315 314 314 314 313 313 313 313 313 313 313 314 314 313 313 313 313 312 312 311 311 310 308 308 307 307 307
315 315 315 316 316 316 316 315 313 313 314 315 315 315 315 314 314 314 314 314 314 314 314 314 314 314 314 314 314 314 314 314 315 315 315 315 315 315 315 316 317 317 315 315 316 317 317 317 317 318 317 317 317 317 317 317 317 317 316 315 315 315 315 315 315 314 314 314 314 313 314 314 314 314 313 313 312 312 312 311 311 309 309 308 307 307 307
Wind_Speed
20 20 19 19 18 16 17 18 20 22 23 24 24 22 22 20 16 14 11 14 19 21 21 22 17 13 14 15 18 22 23 25 21 12 12 14 14 14 16 21 25 27 29 31 33 34 34 35 37 37 36 37 37 39 41 40 36 30 29 31 31 30 30 31 34 40 39 31 26 29 35 38 36 32 31 33 35 36 41 46 48 48 46 43 42 41 36
19 21 21 22 22 20 20 21 21 22 24 26 25 23 25 25 22 19 16 17 20 19 20 23 22 20 20 18 21 24 23 25 23 15 13 15 15 17 20 23 27 30 33 33 33 34 34 35 36 37 36 36 36 36 36 37 36 30 27 29 29 29 29 28 28 32 30 23 23 30 34 35 36 37 40 45 48 49 51 52 51 47 44 44 45 45 39
15 20 22 24 24 23 23 23 23 24 23 25 25 23 23 23 22 23 23 20 18 15 16 20 23 26 24 21 21 22 22 25 25 18 16 17 16 19 22 25 27 30 32 33 34 34 35 35 36 36 35 33 32 32 31 31 32 28 26 28 28 27 26 24 22 21 22 25 30 34 34 34 35 36 42 51 56 55 54 54 52 48 44 44 46 46 43
11 16 22 24 25 25 25 24 24 25 23 22 21 20 20 20 20 22 24 20 15 13 14 17 20 23 22 19 20 21 23 26 24 18 17 17 16 17 18 21 24 26 29 33 36 35 34 35 35 34 32 31 31 30 26 24 23 23 24 25 25 21 19 22 23 20 19 26 33 34 33 33 32 30 34 44 53 56 57 57 55 51 47 46 46 46 44
8 11 16 20 21 21 20 20 21 23 23 22 22 20 21 21 19 17 17 15 13 14 16 17 19 22 22 21 22 23 22 19 16 15 15 14 13 13 14 17 21 25 25 27 30 30 28 29 31 29 27 27 28 26 23 21 20 20 20 21 21 19 18 21 24 21 20 24 28 27 28 28 27 27 28 34 44 51 55 56 55 53 51 49 48 46 43
8 9 10 12 15 15 13 14 19 23 24 24 24 23 22 22 18 15 13 13 13 14 15 16 18 19 19 20 20 20 18 14 12 14 14 13 12 12 13 15 19 24 24 23 26 28 25 24 24 23 22 22 23 23 22 22 21 19 19 19 18 17 17 19 20 19 19 22 23 22 22 22 23 25 26 27 33 40 47 51 53 53 52 51 49 47 43
7 6 8 10 12 13 12 13 16 21 23 24 24 23 23 23 22 20 18 16 14 13 13 15 16 14 13 13 15 16 17 18 18 15 14 14 13 13 14 15 18 23 23 23 25 27 25 25 24 22 20 19 18 18 18 18 18 17 17 17 16 16 17 17 17 17 18 20 19 18 18 18 20 21 22 22 25 31 39 45 49 51 50 50 50 46 40
6 6 8 10 9 10 12 11 9 11 16 20 22 21 22 22 21 20 20 19 17 16 15 13 11 9 7 8 12 16 17 19 20 17 13 14 15 16 18 20 21 21 21 22 27 29 28 27 24 21 19 18 17 17 16 16 17 17 17 17 16 16 16 14 14 15 16 16 16 15 14 15 17 17 17 20 22 27 34 40 45 49 49 49 49 42 34
6 6 7 7 9 13 13 8 3 3 6 9 10 13 16 19 19 17 16 17 17 17 15 11 9 7 6 6 10 14 14 16 20 18 13 12 14 15 16 19 20 20 21 24 27 28 27 26 25 25 26 26 24 22 21 21 21 20 19 19 18 16 15 13 12 12 12 12 11 11 12 13 13 13 15 18 20 21 25 28 33 39 42 44 45 39 34
5 5 5 5 9 12 8 1 5 6 6 6 5 7 11 14 15 16 16 16 17 16 13 11 10 8 6 8 9 11 12 13 15 17 16 15 15 14 15 17 19 19 22 24 26 26 26 28 31 33 33 33 30 28 26 24 23 22 21 20 18 16 15 13 11 10 10 9 9 9 10 10 10 11 12 14 15 16 18 19 22 26 29 29 32 33 33
7 7 4 3 8 7 1 6 8 8 8 7 3 6 12 11 13 16 16 16 17 15 13 12 11 9 9 10 8 10 10 9 10 12 15 16 16 15 16 17 17 19 22 25 28 31 30 31 36 37 35 34 31 28 26 24 23 22 21 19 18 16 14 12 10 10 10 10 10 10 9 10 11 12 12 12 13 14 15 16 19 22 21 20 22 25 27
10 10 6 4 6 4 3 8 10 10 8 3 4 10 10 8 14 17 16 15 15 14 13 13 11 10 10 7 6 10 8 8 9 11 13 15 16 16 16 17 21 25 30 32 35 35 33 34 37 37 33 31 29 26 24 22 21 21 20 18 17 15 12 10 9 9 10 11 12 12 12 13 14 14 13 12 13 14 13 13 15 17 18 18 19 19 20
11 12 9 6 5 2 3 10 12 9 6 5 9 9 4 1 7 12 14 15 14 14 15 14 10 7 4 3 9 11 10 10 10 11 13 15 16 17 19 24 29 34 37 38 37 36 35 35 35 33 31 29 26 24 23 21 19 19 18 16 15 13 11 9 8 8 10 12 12 12 13 14 15 15 14 13 15 16 15 14 15 16 16 16 17 18 18
10 10 9 7 5 2 7 13 12 6 6 6 5 3 4 3 4 7 11 14 15 15 17 14 10 9 8 10 14 14 14 15 16 15 17 18 19 22 26 30 35 38 39 39 38 36 34 33 32 31 29 28 26 24 24 21 20 19 16 14 12 11 11 10 10 11 12 12 12 12 12 13 14 15 14 15 17 17 15 15 17 18 17 16 18 20 20
8 8 8 8 5 3 11 14 8 5 5 4 3 4 4 1 2 5 8 11 15 18 17 16 16 16 16 17 19 21 21 22 23 22 24 26 29 33 35 33 32 33 35 36 35 34 32 31 30 29 27 25 24 23 21 19 17 16 14 11 10 10 11 13 13 13 13 13 13 12 13 15 16 17 18 18 18 17 16 16 17 18 16 17 19 20 21
8 10 8 4 1 5 10 9 5 4 5 6 5 3 2 6 7 6 6 9 15 21 24 24 23 21 21 21 24 27 27 27 29 30 32 36 37 35 33 29 26 28 32 33 32 32 30 29 28 26 23 20 18 18 17 16 14 13 11 9 9 12 14 15 15 14 13 14 14 13 15 18 20 20 20 18 16 16 16 17 17 16 16 17 18 18 20
3 4 3 4 5 5 6 5 5 5 4 4 4 2 7 10 10 11 11 12 15 21 25 27 25 24 23 23 24 27 28 28 30 31 31 32 32 29 27 25 22 24 28 29 28 28 27 26 25 23 19 17 15 15 15 13 11 10 9 9 12 15 16 15 14 14 14 15 15 16 20 23 23 21 19 16 14 13 14 15 15 15 15 16 16 17 18
4 5 5 7 8 8 7 4 4 4 4 6 7 8 10 12 12 13 14 13 14 16 20 24 25 23 23 24 24 24 25 26 29 32 31 29 27 26 26 25 21 19 21 22 23 22 22 21 20 18 16 14 13 12 11 11 10 9 9 11 14 16 16 14 13 14 15 17 18 20 24 25 24 21 18 13 10 10 12 14 15 14 15 15 16 18 18
6 5 6 7 10 9 7 4 4 7 10 11 11 12 13 14 14 15 14 13 14 15 17 22 25 25 25 26 25 24 24 24 25 28 29 28 26 24 24 25 22 19 18 18 19 19 18 18 16 15 14 13 11 10 10 10 10 11 12 14 16 17 16 14 14 15 16 18 20 23 27 27 23 20 16 12 10 11 12 13 14 15 16 17 18 18 18
6 6 8 11 14 13 9 7 7 10 13 14 14 14 15 17 17 16 15 13 14 16 17 19 23 25 24 25 25 25 24 22 22 23 24 24 23 22 21 21 20 19 18 18 17 17 16 16 15 14 13 12 10 9 10 11 12 15 16 17 16 16 15 14 15 16 17 19 22 25 28 25 20 17 14 12 11 11 11 11 13 14 15 16 16 15 15
6 8 9 11 13 12 11 12 13 14 15 15 16 18 20 20 20 19 18 17 17 18 19 19 23 26 24 22 24 24 22 21 20 20 19 19 20 19 18 17 16 16 16 16 16 15 15 15 15 15 14 12 12 11 12 14 16 17 17 16 15 15 15 15 15 16 18 21 23 24 25 24 20 17 16 14 12 11 12 11 12 14 14 13 12 12 11
7 8 8 9 11 7 7 11 14 15 15 15 17 20 22 22 21 19 18 20 21 23 23 23 24 26 24 23 24 24 21 19 17 16 16 16 17 17 16 16 14 13 14 14 15 15 16 16 16 16 15 14 15 15 16 17 18 17 17 17 16 15 15 15 15 16 18 20 22 22 22 22 21 20 19 16 14 14 15 13 12 14 16 15 13 12 10
5 8 8 9 12 11 10 12 13 13 13 12 14 17 18 20 22 21 19 20 21 22 24 24 23 24 24 23 24 24 21 19 17 15 14 14 14 14 13 14 14 13 13 14 14 15 16 17 16 16 16 16 16 17 18 18 18 18 19 19 17 15 15 15 15 17 18 19 20 20 19 19 20 20 20 19 17 16 17 15 12 13 17 18 15 14 12
5 10 11 12 14 16 16 17 16 14 13 13 14 15 15 17 20 21 19 19 18 18 21 22 21 21 22 22 23 22 20 17 16 16 14 13 13 12 10 10 12 12 11 11 12 13 15 15 15 15 16 16 16 17 18 20 21 21 21 20 18 15 15 15 15 17 17 16 16 17 16 16 18 20 20 18 16 15 15 14 12 15 18 17 14 14 14
7 12 14 17 20 21 20 20 19 16 14 15 16 16 17 19 19 18 17 17 16 16 17 18 18 18 19 19 19 18 16 15 14 13 13 13 12 12 10 8 8 9 9 9 10 11 11 12 12 14 14 15 16 16 18 21 23 23 22 20 17 15 15 14 14 15 15 14 14 14 14 14 17 19 17 15 13 12 13 14 16 18 17 15 13 13 14
12 18 21 23 23 20 19 20 18 15 12 10 10 11 13 15 15 16 15 15 13 13 13 14 15 15 15 15 14 13 12 11 10 10 11 10 10 10 9 7 6 6 6 7 9 10 9 9 11 12 12 13 15 17 20 23 23 22 21 19 17 15 14 13 13 14 14 13 13 13 13 14 14 14 13 12 11 11 11 13 16 18 17 14 13 14 14
14 18 20 20 18 15 16 18 17 16 14 10 8 9 10 10 10 13 14 13 12 11 12 12 12 11 11 11 10 8 7 7 6 6 7 7 7 7 6 5 4 3 3 5 8 10 11 10 11 11 11 12 14 16 20 22 22 21 20 18 16 15 13 12 12 14 13 11 10 10 10 11 10 10 10 12 12 12 11 10 11 14 16 14 12 12 12
21 20 18 16 15 14 16 19 20 19 16 13 11 10 9 10 11 11 12 13 12 11 11 11 10 9 9 8 7 5 5 4 3 4 4 3 3 2 2 2 2 2 2 4 7 10 12 11 11 11 12 13 14 16 19 22 21 20 19 17 15 14 13 12 12 12 12 11 11 11 10 8 8 9 11 14 14 14 13 10 9 12 13 10 8 8 9
25 26 24 21 18 16 18 20 21 18 15 14 13 11 9 8 9 9 9 10 9 9 8 8 7 7 8 6 5 6 5 4 3 2 2 1 1 2 3 2 2 2 2 3 6 9 11 11 10 10 12 13 15 18 20 21 20 19 18 15 13 12 12 12 11 11 13 15 15 12 9 7 9 12 14 13 12 10 9 10 11 11 9 8 7 9 11
21 23 23 22 20 18 19 19 18 16 13 12 12 11 9 7 6 6 5 5 5 4 4 4 4 4 5 5 5 6 5 4 4 3 2 1 2 4 6 5 3 2 1 2 4 8 10 10 10 11 12 14 17 20 21 20 19 19 17 14 12 11 12 13 13 12 15 17 15 11 10 11 12 13 11 10 10 10 10 11 11 9 7 8 10 12 13
20 20 20 20 19 18 18 17 15 14 13 11 10 9 7 5 3 2 1 1 1 1 1 1 2 2 2 3 3 4 3 3 3 3 2 1 2 4 6 7 6 4 3 2 3 6 7 9 10 12 14 15 19 22 22 20 18 17 14 12 11 12 12 13 13 13 14 15 13 11 11 12 12 12 11 12 11 10 9 9 8 7 7 9 10 11 13
18 18 16 15 15 15 15 14 13 12 12 10 10 9 5 2 0 0 1 1 1 1 1 1 2 2 2 2 2 2 2 3 2 2 2 2 2 2 4 6 7 7 6 5 4 5 7 9 10 13 15 18 22 24 22 19 16 13 10 10 12 14 14 14 14 13 13 12 10 9 9 10 11 12 12 10 8 7 7 7 7 7 8 8 9 11 13
14 13 10 8 10 12 12 11 11 12 11 10 8 5 2 1 1 0 1 1 2 3 3 4 5 5 5 5 4 4 4 4 3 3 3 3 3 4 4 5 7 9 8 7 6 6 8 10 11 14 16 20 23 24 21 18 15 11 10 12 14 16 16 15 15 14 14 14 13 12 12 12 12 10 7 6 6 7 7 7 7 7 8 8 10 12 13
10 11 9 6 6 6 5 5 6 6 6 6 4 2 1 1 2 3 4 4 5 6 6 6 7 7 6 6 6 5 5 4 4 4 5 4 4 5 5 6 7 9 9 9 7 7 8 10 12 15 18 21 24 25 22 18 14 12 12 16 18 18 17 15 15 15 15 15 14 12 12 11 10 7 6 8 9 9 8 8 8 8 8 10 12 13 12
9 10 9 8 9 9 8 6 6 5 5 6 5 4 4 5 6 7 8 8 8 8 7 7 7 7 6 6 6 6 5 6 6 6 6 6 4 3 3 4 5 6 8 9 8 8 8 8 11 15 20 23 24 24 20 17 13 13 15 19 21 19 16 14 14 13 13 12 11 10 9 8 7 6 8 9 10 10 9 9 9 8 9 11 14 14 13
8 8 7 8 8 9 8 6 6 6 6 7 6 7 8 9 10 10 10 10 9 8 8 7 7 7 7 8 8 7 7 7 8 7 7 6 5 3 1 1 1 3 4 5 5 7 8 9 11 15 22 25 25 23 19 15 12 12 16 19 20 18 15 13 12 11 11 10 9 8 7 5 5 6 8 9 10 10 9 10 11 11 10 10 11 11 12
7 7 8 8 7 7 7 7 7 7 7 7 7 9 10 12 13 13 13 12 11 10 10 9 8 9 9 9 9 8 9 9 8 8 7 6 4 4 4 4 4 5 6 6 6 7 9 10 10 13 17 21 22 22 20 15 12 12 15 16 16 15 14 13 12 12 11 10 8 7 6 5 6 7 8 9 9 9 8 9 11 11 10 8 8 8 10
7 7 8 9 8 8 8 7 7 7 7 8 9 11 12 13 14 14 14 14 12 11 11 11 10 10 10 10 9 9 8 8 7 7 6 6 6 6 7 7 7 8 8 8 7 7 8 10 10 9 10 12 15 17 17 16 14 12 12 13 13 14 14 14 13 12 9 6 6 6 6 7 7 8 8 9 8 7 8 8 9 9 8 8 9 9 9
7 7 8 9 9 9 9 7 7 7 8 8 9 10 11 12 13 13 14 13 12 11 11 11 11 11 11 10 10 9 7 6 6 6 7 8 9 11 12 12 11 11 11 11 10 11 12 13 11 9 9 11 11 12 12 13 13 13 14 15 16 16 15 13 11 7 6 7 7 6 6 6 6 6 6 7 7 7 8 9 9 8 8 8 8 9 10
8 8 8 8 7 8 8 8 7 8 8 8 9 10 10 11 11 13 13 12 11 11 11 11 12 12 11 11 11 10 8 7 7 7 8 9 11 13 14 14 13 13 14 14 14 14 14 13 12 12 13 14 15 15 16 17 16 14 13 13 12 10 9 8 7 6 5 6 6 6 5 5 6 6 6 7 7 7 7 7 7 6 7 8 8 8 9
9 9 9 9 9 9 9 9 9 9 9 9 9 9 10 10 10 11 12 12 12 12 13 12 11 11 11 12 12 11 11 11 10 8 8 9 10 11 11 11 11 11 11 12 13 12 10 10 10 10 11 12 13 14 15 14 11 8 8 8 7 5 4 5 5 5 6 7 6 6 6 7 7 7 7 6 6 6 6 6 6 7 7 9 9 9 9
9 10 10 11 11 11 11 10 10 10 11 11 11 11 11 11 10 10 11 11 12 13 13 13 12 11 11 11 12 12 13 13 11 10 9 9 9 9 10 10 10 9 9 10 10 9 9 8 8 9 9 9 10 11 11 10 9 7 7 8 8 7 6 7 7 7 7 7 7 7 7 7 7 7 7 7 6 6 6 6 7 8 9 10 10 11 11
10 10 11 12 12 11 11 11 11 11 11 12 12 13 12 12 11 11 11 11 11 12 12 12 12 12 11 11 10 11 12 12 11 10 10 9 9 9 9 9 9 9 11 11 10 9 9 9 9 10 10 10 11 11 10 8 8 7 7 6 7 6 6 6 6 6 6 6 7 7 7 7 7 7 7 7 6 6 7 7 7 8 9 10 11 12 13
10 10 11 11 11 11 10 10 10 10 11 12 12 12 12 12 12 12 11 12 12 12 12 12 12 12 11 10 10 10 10 9 9 8 8 9 9 8 8 8 8 9 10 11 10 9 9 10 10 10 10 9 9 9 8 6 5 5 5 5 5 5 5 5 5 5 6 6 6 7 7 7 7 7 7 7 6 6 6 6 6 7 8 9 10 12 13
10 11 11 11 11 10 10 10 10 10 10 10 10 11 11 12 12 12 13 13 13 12 12 12 11 11 10 9 9 9 9 8 9 8 7 7 7 7 6 6 7 7 8 8 8 7 8 9 9 8 8 7 7 7 6 5 5 5 5 5 5 5 5 5 5 5 6 6 7 7 7 7 7 7 7 7 6 5 5 5 6 6 7 8 9 10 11
9 9 10 10 10 10 10 10 10 10 9 8 9 10 10 11 11 11 12 13 12 11 11 11 10 10 9 9 8 7 7 7 7 8 8 7 6 5 4 4 4 5 5 6 5 5 6 7 7 6 5 6 6 6 5 4 4 4 4 4 4 4 4 5 5 6 6 7 7 7 7 7 7 7 7 7 7 6 7 8 8 7 8 8 8 9 10
7 7 7 8 7 8 8 9 9 9 9 8 9 9 9 9 9 10 10 10 10 10 9 9 8 8 9 9 8 7 7 6 6 6 7 6 5 4 3 2 2 3 3 3 3 4 5 6 6 5 5 5 5 5 4 4 4 4 3 4 4 4 4 5 6 7 7 7 8 8 8 8 8 8 8 9 8 8 8 9 8 8 8 9 9 9 10
6 6 6 7 7 7 7 7 6 7 8 8 8 8 8 8 9 9 9 9 9 8 7 7 7 7 7 8 7 7 8 8 8 7 6 6 5 4 3 2 1 1 1 3 4 5 6 6 6 5 6 6 5 4 4 4 4 3 3 4 4 5 6 6 7 8 8 8 9 9 9 9 9 9 9 9 9 9 9 10 10 9 9 9 9 9 10
5 5 5 6 7 7 7 6 6 6 7 7 8 8 8 8 8 9 9 9 9 8 7 6 6 6 6 7 6 6 8 9 9 7 7 7 6 5 5 4 5 5 4 4 5 5 6 7 7 7 7 6 6 6 6 6 5 5 5 5 5 6 7 8 9 9 9 9 10 10 10 10 10 10 10 10 11 11 11 11 11 11 10 10 10 10 10
4 4 4 4 5 6 7 7 7 7 6 6 7 8 8 8 8 8 9 9 9 9 8 8 7 7 7 7 7 7 9 10 10 9 9 9 8 7 6 6 7 7 7 6 5 7 8 8 9 9 9 9 9 9 9 9 8 8 8 8 8 8 9 10 12 13 12 11 11 11 11 11 11 11 12 12 12 12 13 13 13 13 13 13 11 10 9
2 2 2 3 3 4 5 6 5 5 5 6 6 7 7 8 8 8 8 9 9 9 9 9 9 8 8 8 8 9 10 11 11 11 11 11 10 10 10 10 10 10 10 9 7 7 8 9 10 10 11 11 11 12 12 12 11 11 10 10 10 10 10 11 12 13 13 13 13 12 12 12 13 13 13 13 14 14 15 14 14 14 14 12 10 9 9
1 1 1 3 4 5 4 4 4 4 6 7 7 6 7 8 8 8 8 9 9 9 10 10 11 11 10 9 10 11 12 12 12 13 12 12 12 12 12 12 11 11 12 11 10 9 8 9 10 12 13 13 13 14 14 14 14 14 13 13 13 13 13 13 13 13 13 14 14 14 14 14 15 15 15 15 15 16 16 16 15 15 14 13 11 10 9
Wind_Direction
235 239 236 232 229 228 230 228 223 222 221 224 229 231 233 233 236 240 217 201 220 230 230 231 221 216 230 234 238 243 247 257 262 244 224 223 209 207 211 209 206 205 205 206 208 213 213 213 215 216 217 219 219 221 224 224 219 212 212 217 215 213 215 220 231 240 239 232 225 217 216 220 224 228 229 228 230 234 238 240 242 242 242 241 240 239 240
238 239 239 239 236 231 230 232 232 230 225 224 227 231 234 235 239 244 234 219 223 225 226 233 234 235 241 241 240 243 246 255 261 251 235 229 211 208 221 222 215 212 213 211 210 213 212 211 213 214 214 215 216 218 221 224 224 215 209 217 219 216 220 222 229 240 234 218 217 223 223 222 223 224 227 230 231 232 235 238 240 240 240 242 241 240 242
240 238 238 239 239 237 233 230 231 234 233 229 228 227 229 233 236 240 240 235 231 224 223 231 237 240 244 244 240 242 244 248 253 252 246 239 223 217 226 228 220 215 214 213 213 212 210 210 211 211 211 210 211 214 215 219 222 213 207 217 222 220 223 223 227 232 222 216 228 237 239 240 238 232 229 230 232 232 233 236 241 242 240 241 242 243 244
237 233 233 234 237 239 237 232 227 228 232 233 232 229 226 228 230 231 234 237 235 227 225 228 231 235 239 240 240 240 239 240 244 246 246 246 237 225 221 220 217 214 211 211 213 211 208 208 208 208 208 207 209 209 206 205 207 204 206 215 220 220 216 217 224 223 213 226 242 245 246 248 249 246 239 233 232 232 232 234 240 243 241 241 243 245 245
245 239 235 234 235 236 236 232 227 226 228 230 233 233 230 230 231 230 230 233 234 229 225 224 225 228 231 232 233 236 236 235 239 242 246 250 245 229 215 212 216 216 210 207 209 208 203 203 205 204 202 203 205 201 195 191 191 194 203 208 215 219 210 212 223 220 214 235 249 246 246 251 251 248 244 236 233 233 233 234 238 242 242 242 244 246 245
246 251 255 247 237 235 233 228 225 226 227 229 231 232 229 228 231 235 239 243 239 226 217 218 222 225 225 221 221 226 230 233 240 245 246 244 237 226 215 210 216 217 207 199 203 205 199 195 197 194 191 196 201 200 198 201 202 203 206 203 202 206 208 215 221 213 216 239 250 247 248 252 248 245 245 241 237 235 235 237 239 241 243 243 244 247 246
239 246 254 247 236 234 237 238 232 228 228 231 235 236 233 229 228 230 235 241 240 230 221 221 223 221 215 213 219 226 232 240 246 247 244 235 222 215 214 210 209 210 201 193 196 198 192 189 189 189 191 197 202 203 202 201 200 200 203 201 194 191 199 211 212 209 224 241 245 246 249 248 246 248 250 248 243 238 237 239 241 241 242 243 245 246 245
237 233 231 240 255 254 247 251 256 240 231 233 237 238 235 232 230 229 231 232 233 235 233 223 212 202 194 210 230 234 236 242 244 241 239 233 219 215 222 222 219 219 212 203 201 198 193 190 187 180 176 175 175 179 177 171 168 170 177 184 183 180 184 194 200 212 230 237 237 243 246 243 244 247 247 246 244 240 239 240 240 241 241 244 246 246 242
230 239 236 252 280 267 246 242 272 278 258 251 250 249 241 233 229 228 229 229 229 231 228 208 179 173 187 220 232 228 229 238 241 237 231 225 216 213 216 219 221 220 209 200 201 202 195 183 170 160 156 153 152 155 155 150 149 153 160 168 170 170 173 179 189 204 219 224 228 231 227 226 233 236 239 241 237 234 236 236 238 241 243 246 248 247 247
216 238 248 256 263 254 242 300 24 15 343 331 324 276 247 230 220 219 221 224 225 224 214 190 169 167 202 234 226 208 209 226 237 234 223 213 205 195 191 200 209 207 197 192 189 185 177 165 156 153 150 146 144 147 147 147 149 152 158 163 163 165 166 170 178 184 189 198 204 204 204 209 217 222 228 231 224 222 227 231 236 240 242 246 248 246 249
214 218 229 245 251 249 320 16 4 355 342 347 349 258 240 216 199 204 213 218 219 217 206 187 170 174 217 236 209 179 187 205 213 214 209 203 196 186 183 190 193 184 180 176 165 158 158 156 149 146 144 142 143 146 147 149 152 154 159 160 158 160 160 157 158 160 166 178 185 188 192 194 200 206 208 210 213 218 225 232 238 239 238 241 242 241 246
212 215 220 235 245 243 23 6 345 337 335 338 221 237 237 198 182 190 200 209 212 209 200 188 182 197 228 231 168 150 165 181 186 189 186 180 177 172 169 171 170 164 160 156 150 148 152 151 144 140 140 140 141 143 143 146 151 155 156 153 149 150 148 141 141 151 162 175 182 185 188 188 190 195 198 203 210 213 216 222 229 232 233 236 234 235 242
208 214 219 237 250 228 16 347 334 323 302 240 220 233 258 181 188 188 191 198 199 193 193 194 194 201 210 142 129 137 143 145 150 157 157 155 153 153 157 160 158 152 147 143 142 144 146 143 138 136 136 137 137 137 137 139 144 147 145 141 140 142 143 142 151 164 172 179 183 183 186 188 187 187 193 203 209 210 209 210 214 218 222 227 231 235 237
210 212 216 238 250 82 16 337 319 279 242 236 234 279 341 322 243 206 194 195 190 186 190 187 171 153 138 125 128 131 131 131 130 129 131 131 133 140 147 148 143 138 136 136 137 138 137 135 133 131 131 131 130 129 128 128 129 129 127 129 135 143 150 159 169 175 177 180 181 180 183 186 184 184 191 201 210 214 212 209 212 216 216 220 227 231 230
204 205 209 226 225 56 12 339 305 242 248 288 344 346 346 5 187 189 188 183 175 168 161 146 134 131 127 123 123 122 120 119 117 116 119 121 124 131 134 133 131 131 132 132 133 133 132 129 126 125 125 126 126 124 123 122 121 117 114 118 133 154 169 174 176 178 180 181 183 184 184 185 188 192 198 205 213 221 219 213 216 220 218 219 222 225 228
203 206 202 203 193 29 10 345 302 282 318 340 346 335 70 90 97 112 121 134 143 141 134 128 126 123 116 114 115 113 111 109 107 108 113 117 120 123 124 123 125 129 131 131 132 133 133 131 130 131 131 128 127 127 126 123 120 117 115 123 151 173 180 177 174 177 182 185 192 196 192 190 194 200 205 210 220 230 225 215 214 215 213 214 218 224 229
198 197 160 103 79 53 24 347 307 306 332 3 12 76 105 95 90 94 97 106 119 125 126 125 121 115 110 106 105 103 102 102 102 103 108 114 117 118 118 118 120 125 130 131 132 135 137 137 137 138 136 129 127 129 129 127 126 128 136 152 171 179 178 171 170 177 183 188 195 197 193 193 198 204 207 213 226 231 218 206 205 207 208 212 217 221 226
100 88 100 109 100 74 49 13 328 341 21 41 53 75 81 75 76 82 86 92 101 111 118 115 109 104 100 96 93 92 92 94 99 104 106 107 109 113 116 117 118 122 130 134 135 137 137 135 132 132 132 134 134 133 135 140 142 145 157 168 173 174 171 168 172 178 185 190 193 193 192 195 202 207 208 211 221 217 201 196 201 206 209 215 220 220 221
149 136 125 112 98 78 56 36 14 24 34 40 49 58 58 59 65 68 69 77 85 87 91 97 98 96 93 91 89 88 88 89 95 102 105 106 107 109 112 114 115 119 127 133 135 136 136 135 135 136 140 145 146 141 142 149 152 154 161 167 170 169 165 167 174 181 188 194 194 192 194 198 202 206 207 210 216 211 202 203 210 214 215 218 221 220 219
161 140 122 99 85 74 62 57 41 30 31 36 43 54 61 64 64 63 63 69 77 77 76 82 89 88 86 88 91 91 91 93 96 99 102 105 106 106 106 109 113 118 127 134 138 142 145 146 149 153 154 155 154 149 149 155 158 160 161 163 165 165 161 165 174 183 193 198 195 195 197 197 195 196 201 206 208 208 209 212 217 222 224 224 223 222 218
137 117 124 110 89 67 46 45 39 27 27 36 46 57 62 62 59 58 60 62 65 69 69 72 80 80 76 79 87 89 89 90 92 96 100 102 104 106 106 106 108 115 126 135 142 149 154 156 160 162 162 159 157 156 157 160 161 161 160 157 158 161 162 167 176 185 195 200 199 198 198 198 196 198 205 210 211 214 221 226 227 226 222 216 216 216 212
160 142 150 130 109 89 45 35 29 22 28 42 52 56 58 61 61 55 52 55 59 64 65 66 73 75 73 76 84 87 85 85 87 91 96 101 104 108 111 114 117 123 131 139 146 153 157 160 161 160 159 159 159 159 160 160 158 157 156 153 155 160 162 166 176 185 190 195 198 196 197 206 215 218 221 231 240 242 243 253 255 236 214 199 196 195 197
141 132 130 110 104 107 98 75 55 40 36 42 52 55 56 64 68 64 56 52 53 60 65 66 65 66 68 75 82 82 79 80 84 89 93 98 101 104 111 121 127 133 140 148 155 161 161 161 161 160 160 161 161 160 160 156 152 152 152 151 153 159 161 166 179 187 186 189 197 198 200 212 224 228 232 240 249 252 253 260 256 225 205 197 197 194 193
96 107 111 108 105 108 110 105 94 81 68 63 68 67 63 67 74 74 69 60 50 52 63 68 67 65 64 69 75 76 73 74 78 81 85 92 93 91 95 113 126 134 142 150 159 166 166 164 164 164 163 162 160 159 157 152 149 148 147 147 150 156 161 170 185 190 185 186 196 200 200 209 222 230 236 242 245 245 245 243 226 204 198 201 206 206 209
122 110 111 111 106 107 116 119 112 103 91 84 86 85 80 81 86 86 81 74 62 55 57 64 70 72 69 68 68 66 64 65 69 72 77 83 88 87 84 97 120 133 141 150 160 165 166 168 170 169 165 162 160 157 154 152 150 147 145 146 149 155 161 173 186 187 182 185 193 196 199 211 222 226 228 231 232 230 227 222 211 202 201 209 216 217 219
120 117 115 109 101 103 116 119 114 108 98 91 98 100 90 87 94 95 89 84 78 68 62 61 65 70 71 71 68 63 57 56 59 64 68 69 76 82 84 88 106 127 147 163 168 166 165 169 172 169 163 160 158 158 157 156 153 151 150 150 152 155 159 170 181 182 184 191 194 195 203 213 216 215 214 212 212 214 215 214 211 211 217 229 234 230 227
101 115 120 115 104 100 106 112 116 117 109 94 88 88 79 76 85 89 85 82 79 73 65 61 61 65 69 68 65 62 56 47 44 51 58 60 65 74 81 90 105 126 158 180 182 174 166 162 160 157 155 157 159 160 161 159 155 153 153 153 152 152 156 168 181 184 185 190 191 192 199 202 195 196 207 211 208 210 214 214 216 225 232 233 230 228 230
84 91 96 99 97 93 99 113 124 125 116 100 85 73 65 66 69 67 67 70 69 63 57 53 52 61 72 74 71 71 65 45 24 26 35 45 65 83 98 110 117 134 167 197 198 184 168 156 154 155 154 154 157 160 160 157 154 152 152 151 150 152 158 168 177 181 182 183 180 176 179 184 188 204 224 231 229 227 225 215 208 217 219 209 203 218 231
78 83 81 80 86 94 101 108 112 111 105 101 96 85 72 68 65 56 54 56 51 45 48 49 46 53 65 72 78 78 73 64 55 45 26 333 221 203 204 200 183 172 188 212 204 188 172 160 159 161 157 154 157 158 155 151 148 146 142 138 136 139 146 155 165 176 182 179 173 172 184 206 222 231 238 236 227 215 202 188 185 194 199 197 211 230 236
75 84 81 76 79 90 94 91 90 90 91 94 94 86 72 65 64 59 56 56 45 39 48 54 52 54 55 57 64 67 61 52 54 61 66 227 222 212 211 209 197 175 182 232 210 191 176 168 165 164 160 158 159 156 149 144 143 141 136 133 135 139 148 156 162 171 179 179 183 203 226 227 224 225 220 200 178 166 165 172 179 187 205 220 228 235 238
75 79 80 75 69 71 76 74 73 78 81 81 84 80 66 55 60 63 61 110 123 125 135 94 59 51 48 53 64 68 59 43 39 41 29 315 252 220 212 208 202 189 178 197 207 189 173 170 172 169 166 165 162 156 149 143 142 143 142 144 148 148 153 161 166 171 180 188 200 218 222 214 206 197 180 167 160 157 165 181 188 196 218 229 228 231 242
74 72 73 70 63 62 66 67 67 70 71 69 73 73 59 23 315 217 229 208 167 145 135 89 65 60 69 70 57 40 27 14 9 7 343 323 310 280 234 217 214 208 191 182 197 191 171 166 172 175 175 172 166 160 154 149 146 145 148 152 153 151 152 157 162 165 167 167 167 172 177 176 173 169 164 163 165 167 178 196 205 211 221 222 216 226 244
88 87 80 67 63 66 66 64 65 67 66 63 64 63 43 312 255 166 113 89 73 55 43 39 37 40 49 50 38 24 11 1 360 2 348 326 302 281 256 230 225 221 205 194 201 194 172 167 175 181 182 178 170 165 161 158 154 154 156 156 155 154 153 153 152 151 148 145 143 148 153 155 157 164 176 191 199 197 200 207 212 217 218 214 217 235 251
106 116 126 130 120 115 113 105 95 90 90 89 82 73 68 69 62 58 55 53 51 44 34 29 29 32 38 40 36 29 21 14 8 356 344 329 288 255 238 223 222 223 213 205 199 180 169 178 183 183 185 184 179 174 172 170 170 172 172 167 161 155 152 150 146 144 148 151 150 148 151 158 168 187 207 213 218 224 229 227 219 213 214 222 235 248 253
125 128 134 143 150 155 155 145 137 137 134 123 114 105 92 74 58 51 48 46 44 42 38 37 39 40 41 42 39 32 25 20 11 358 351 344 319 275 237 214 212 210 206 204 190 165 164 178 179 179 186 191 188 183 181 179 180 181 177 171 166 160 157 155 151 148 152 157 155 152 156 166 183 203 212 222 238 251 254 247 232 218 221 238 249 254 249
132 131 128 130 137 141 140 133 126 121 115 108 102 94 81 66 58 55 53 51 50 49 47 45 46 45 43 40 36 30 26 24 18 10 3 358 351 358 46 119 161 155 159 163 153 151 168 180 178 183 192 195 193 189 184 179 178 182 180 175 172 168 165 163 160 159 158 157 158 166 176 188 209 224 229 243 255 256 249 244 237 229 230 241 253 259 256
111 111 111 113 116 119 117 114 107 98 89 83 79 70 61 55 54 54 53 51 52 54 53 50 47 47 45 43 40 35 31 29 24 17 15 21 35 59 79 92 102 110 115 119 130 155 174 174 170 179 191 197 201 204 202 196 190 183 179 178 177 175 174 173 171 168 165 164 172 191 209 224 239 245 248 254 254 244 233 235 237 235 231 229 235 247 251
98 98 100 101 102 104 102 97 89 81 74 69 64 58 55 54 54 53 52 50 49 52 55 52 50 51 52 51 48 43 39 36 31 25 34 57 79 91 93 93 97 104 108 112 121 132 133 129 133 150 171 186 201 210 214 215 211 199 192 196 194 186 181 180 177 173 178 195 210 217 222 231 241 250 253 249 239 226 220 224 228 230 231 230 229 231 233
98 93 89 87 88 89 88 83 77 71 66 62 60 58 59 59 58 57 56 53 51 56 59 56 55 58 59 58 54 48 44 45 47 46 55 74 92 99 99 98 99 101 103 106 109 109 109 112 119 128 137 149 164 177 184 186 184 177 178 184 185 181 181 186 191 204 238 256 251 238 232 234 236 236 232 225 219 216 219 222 222 226 233 239 236 231 230
96 95 91 86 83 84 82 78 73 67 63 62 62 61 60 60 60 59 57 52 53 59 63 63 64 64 62 58 56 52 50 55 63 64 67 78 93 101 103 105 105 107 112 117 119 118 118 120 123 125 128 133 140 147 153 159 163 166 172 178 185 193 202 212 228 246 248 235 225 219 213 209 205 199 200 209 212 214 219 226 231 237 245 249 248 245 243
94 92 89 85 82 81 79 76 72 68 66 64 60 57 58 60 60 58 55 53 53 56 60 62 64 62 58 55 55 54 54 56 62 69 76 82 90 97 105 110 114 119 127 131 131 132 137 140 138 141 149 155 160 164 166 167 171 181 189 191 198 206 199 188 192 191 177 174 182 187 183 183 188 189 192 198 203 206 215 228 237 240 246 251 253 253 254
94 89 84 80 77 75 74 74 70 66 63 61 59 60 63 63 61 58 55 54 53 54 55 56 54 52 53 54 55 56 57 56 59 69 81 86 88 94 103 111 117 124 129 129 127 130 136 137 137 142 149 158 165 167 164 158 151 147 152 161 166 165 159 158 163 166 165 167 173 177 179 182 187 187 189 194 202 213 223 232 241 247 251 254 255 254 253
91 85 80 76 73 69 67 67 66 64 63 61 61 62 64 63 62 59 56 54 53 53 53 52 49 49 51 51 51 54 57 56 57 66 78 85 90 97 104 111 118 121 119 117 118 121 121 124 133 139 138 138 140 138 133 134 137 137 139 147 151 153 157 161 162 163 167 170 173 178 182 185 188 194 201 207 214 225 234 239 248 255 257 257 256 254 253
89 83 77 73 69 66 62 61 61 62 61 59 58 59 59 59 59 56 53 53 53 52 52 52 48 45 45 45 46 49 51 51 52 59 68 76 81 87 96 107 121 128 124 119 121 126 128 135 146 148 144 144 144 136 127 126 132 132 135 143 148 151 158 164 166 170 175 178 181 186 189 190 195 203 209 211 213 223 231 238 247 257 261 261 260 257 254
87 82 76 72 67 64 61 59 58 59 58 56 54 53 53 54 55 53 51 52 51 50 51 52 48 42 38 36 38 42 46 46 47 49 54 64 74 79 86 100 117 135 137 128 123 130 141 150 155 155 152 152 149 137 126 128 135 136 139 145 149 155 163 169 173 180 183 185 189 192 192 194 200 203 204 208 213 219 224 233 247 259 263 264 264 261 257
84 79 75 71 66 61 58 56 56 57 55 51 49 48 48 49 49 48 48 49 49 48 49 49 47 45 42 36 29 29 34 40 46 47 44 50 65 75 76 87 113 142 149 136 129 140 154 157 159 164 164 155 142 134 133 140 143 141 144 150 154 162 170 174 180 186 189 191 195 196 197 201 205 206 207 210 215 222 231 242 252 259 260 263 267 267 264
79 73 67 63 61 58 53 51 52 52 47 43 42 41 41 41 41 40 42 43 44 45 47 47 45 45 44 40 35 28 20 18 33 44 39 34 43 54 61 86 125 151 167 164 163 171 174 170 169 175 177 164 149 148 161 167 159 156 165 174 177 183 189 192 193 195 196 197 199 201 202 205 209 211 215 219 225 232 238 245 251 258 261 264 269 272 270
76 70 58 51 49 47 43 43 45 44 39 37 37 35 33 33 33 32 32 31 29 30 35 40 39 35 31 30 33 30 20 14 18 25 23 16 13 13 6 359 13 344 276 245 223 203 191 187 189 195 197 191 183 184 197 200 193 189 196 200 198 199 204 204 203 203 204 205 206 208 210 214 218 222 224 228 235 240 241 244 251 257 261 264 269 273 273
84 73 60 53 49 43 37 34 35 34 33 31 30 28 23 20 22 24 24 22 19 16 15 19 21 17 14 13 13 11 10 10 8 3 356 352 351 349 341 330 330 333 322 285 260 248 234 218 211 212 218 219 215 213 218 223 220 214 213 215 215 214 213 210 208 209 211 213 215 218 221 224 229 233 236 241 247 250 251 253 255 255 254 259 268 274 274
87 71 58 54 49 41 36 34 33 33 29 24 23 20 14 10 16 22 21 17 15 13 11 10 9 6 3 2 360 358 1 2 358 349 341 336 329 325 322 316 314 320 324 312 285 272 268 255 238 229 231 236 232 227 226 229 230 227 226 224 223 222 221 219 218 218 219 221 225 229 232 235 238 240 243 248 255 259 261 263 262 256 254 258 265 270 269
93 77 57 48 41 42 44 40 34 25 14 8 8 9 6 3 6 9 8 6 5 4 3 2 1 359 355 353 351 351 351 350 347 343 339 333 323 317 313 307 300 301 307 306 291 277 274 268 255 246 246 246 241 235 232 232 232 232 232 231 231 230 231 231 230 230 231 233 235 237 238 241 246 249 251 254 260 264 265 265 264 261 260 260 260 258 258
95 110 49 37 35 36 33 17 358 355 2 1 355 351 351 349 347 350 355 354 350 347 347 345 343 342 342 342 339 337 336 335 334 334 332 329 323 318 314 307 299 293 292 289 283 275 271 267 261 259 261 258 250 243 241 240 240 240 240 238 237 238 239 238 237 238 238 239 241 243 245 246 250 253 255 258 262 265 265 263 260 258 258 258 256 254 255